Location: Anjeux
(47.8815°N, 6.2076°E)
Time: 15:25:13
(UTC+00:00)

H-2A R/B - Pass Details

Date: 05 March 2021
Orbit: 501 x 538 km, 97.3° (Epoch: 12 March)

Event Time Altitude Azimuth Distance (km) Brightness Sun altitude
Rises 04:47:59 0° 17° (NNE) 2,705 6.7 -14.2°
Reaches altitude 10° 04:50:10 10° 23° (NNE) 1,809 5.8 -13.9°
Maximum altitude 04:53:59 50° 99° (E) 695 3.8 -13.2°
Drops below altitude 10° 04:57:45 10° 176° (S) 1,790 5.4 -12.6°
Sets 04:59:54 0° 181° (S) 2,673 6.3 -12.3°
